This is the latest recevied weather packets stored in our database for station/object KD9CCP. If no packets are shown the sender has not sent any weather packets the latest 10 day(s).
| Time | Temp. | Humidity | Pressure | Rain* | Wind** | Luminosity | Snow |
|---|---|---|---|---|---|---|---|
| 1778109786 | 3.89° C | 63% | 1014.8 hPa | 0 mm | - | 10 W/m² | - |
| 1778109483 | 3.89° C | 58% | 1014.5 hPa | 0 mm | - | 11 W/m² | - |
| 1778109181 | 4.44° C | 61% | 1014.9 hPa | 0 mm | - | 13 W/m² | - |
| 1778108878 | 4.44° C | 64% | 1015 hPa | 0 mm | - | 15 W/m² | - |
| 1778108575 | 4.44° C | 64% | 1014.8 hPa | 0 mm | - | 16 W/m² | - |
| 1778108271 | 3.89° C | 64% | 1014.7 hPa | 0 mm | - | 16 W/m² | - |
| 1778107969 | 3.89° C | 65% | 1014.6 hPa | 0 mm | - | 20 W/m² | - |
| 1778107665 | 4.44° C | 67% | 1014.9 hPa | 0 mm | - | 19 W/m² | - |
| 1778107363 | 4.44° C | 63% | 1014.7 hPa | 0 mm | - | 19 W/m² | - |
| 1778107059 | 4.44° C | 66% | 1014.6 hPa | 0 mm | - | 19 W/m² | - |
| 1778106754 | 4.44° C | 67% | 1014.6 hPa | 0 mm | - | 21 W/m² | - |
| 1778106451 | 4.44° C | 61% | 1014.6 hPa | 0 mm | - | 23 W/m² | - |
| 1778106147 | 4.44° C | 66% | 1014.7 hPa | 0 mm | - | 25 W/m² | - |
| 1778105845 | 4.44° C | 61% | 1014.6 hPa | 0 mm | - | 23 W/m² | - |
| 1778105543 | 4.44° C | 59% | 1014.6 hPa | 0 mm | - | 24 W/m² | - |
| 1778105240 | 4.44° C | 59% | 1014.6 hPa | 0 mm | - | 28 W/m² | - |
| 1778104934 | 4.44° C | 65% | 1014.6 hPa | 0 mm | - | 29 W/m² | - |
| 1778104631 | 4.44° C | 60% | 1014.6 hPa | 0 mm | - | 29 W/m² | - |
| 1778104327 | 4.44° C | 61% | 1014.4 hPa | 0 mm | - | 32 W/m² | - |
| 1778104024 | 4.44° C | 60% | 1014.4 hPa | 0 mm | - | 30 W/m² | - |
| 1778103721 | 4.44° C | 59% | 1014.7 hPa | 0 mm | - | 30 W/m² | - |
| 1778103420 | 4.44° C | 59% | 1014.6 hPa | 0 mm | - | 36 W/m² | - |
| 1778103116 | 4.44° C | 61% | 1014.6 hPa | 0 mm | - | 32 W/m² | - |
| 1778102814 | 4.44° C | 59% | 1014.4 hPa | 0 mm | - | 34 W/m² | - |
| 1778102508 | 4.44° C | 59% | 1014.3 hPa | 0 mm | - | 34 W/m² | - |
* Rain latest hour (hover to see other rain measurements)
** Current wind speed in m/s (hover to see current wind gust speed)